Home   Weather   Jørpeland   Past weeks

Flag for Norway Past Weather in Jørpeland, Norway — Yesterday and Last 2 Weeks

Now
45 °F

Partly cloudy.


Feels Like: 40 °F
Forecast: 39 / 44 °F
Wind: 8 mph from Northwest

Location: Stavanger / Sola

Current Time: Dec 4, 2016 at 7:44:32 pm

Latest Report: Dec 4, 2016 at 6:50 pm


Visibility: N/A

Pressure: 30.27 "Hg

Humidity: 93%

Dew Point: 43 °F

Location of JørpelandLocation

Past Weather in Jørpeland — Graph

°F

Jørpeland Temperature Yesterday

Maximum temperature yesterday: 45 °F (at 3:20 pm)
Minimum temperature yesterday: 25 °F (at 1:20 am)
Average temperature yesterday: 36 °F

High & Low Weather Summary for the Past Weeks

 TemperatureHumidityPressure
High50 °F (Nov 22, 12:20 pm)100% (Nov 23, 2:50 am)30.51 "Hg (Nov 23, 2:50 am)
Low25 °F (Nov 28, 4:50 am)61% (Nov 26, 3:50 pm)29.27 "Hg (Nov 20, 7:50 pm)
Average40 °F84%30.02 "Hg
* Reported Nov 19 6:50 pm — Dec 4 6:20 pm, Jørpeland, Weather by CustomWeather, © 2016

Note: Actual official high and low records may vary slightly from our data, if they occured in-between our weather recording intervals... More about our weather records

Advertising

Jørpeland Weather History for the Previous 24 Hours

Scroll right to see more
 ConditionsComfort  
Time TempWeatherWind HumidityBarometerVisibility
6:20 pm
Sun, Dec 4
45 °FPartly cloudy.8 mph93%30.27 "HgN/A
5:50 pm45 °FPassing clouds.9 mph93%30.27 "HgN/A
5:20 pm45 °FPassing clouds.9 mph93%30.27 "HgN/A
4:50 pm45 °FPassing clouds.6 mph93%30.27 "HgN/A
4:20 pm45 °FPartly cloudy.7 mph93%30.27 "HgN/A
3:50 pm45 °FPartly cloudy.9 mph93%30.27 "HgN/A
3:20 pm45 °FBroken clouds.8 mph87%30.27 "HgN/A
2:50 pm45 °FBroken clouds.8 mph87%30.30 "HgN/A
2:20 pm45 °FBroken clouds.10 mph93%30.30 "HgN/A
1:50 pm45 °FBroken clouds.10 mph87%30.30 "HgN/A
1:20 pm45 °FBroken clouds.10 mph93%30.30 "HgN/A
12:50 pm45 °FPartly sunny.9 mph93%30.30 "HgN/A
12:20 pm45 °FPartly sunny.7 mph87%30.30 "HgN/A
11:50 am45 °FBroken clouds.8 mph87%30.30 "HgN/A
11:20 am45 °FPartly sunny.8 mph93%30.30 "HgN/A
10:50 am45 °FScattered clouds.10 mph93%30.30 "HgN/A
10:20 am43 °FScattered clouds.9 mph93%30.30 "HgN/A
9:50 am43 °FScattered clouds.9 mph93%30.30 "HgN/A
9:20 am45 °FScattered clouds.10 mph87%30.30 "HgN/A
8:50 am45 °FPartly cloudy.10 mph87%30.27 "HgN/A
8:20 am45 °FPartly cloudy.12 mph87%30.27 "HgN/A
7:50 am45 °FPartly cloudy.9 mph87%30.27 "HgN/A
7:20 am45 °FPartly cloudy.10 mph93%30.27 "HgN/A
6:50 am45 °FPartly cloudy.12 mph93%30.27 "HgN/A
6:20 am45 °FPartly cloudy.12 mph93%30.27 "HgN/A
5:50 am45 °FPassing clouds.10 mph93%30.27 "HgN/A
4:50 am45 °FPartly cloudy.12 mph93%30.27 "HgN/A
3:50 am45 °FPartly cloudy.13 mph87%30.27 "HgN/A
2:50 am45 °FPartly cloudy.12 mph87%30.27 "HgN/A
1:50 am45 °FPassing clouds.12 mph87%30.27 "HgN/A
12:50 am45 °FPassing clouds.9 mph87%30.27 "HgN/A
12:20 am45 °FPassing clouds.12 mph87%30.27 "HgN/A
11:50 pm
Sat, Dec 3
45 °FPartly cloudy.9 mph87%30.24 "HgN/A
11:20 pm45 °FPartly cloudy.10 mph87%30.24 "HgN/A
10:50 pm45 °FPartly cloudy.12 mph87%30.24 "HgN/A
10:20 pm43 °FPartly cloudy.8 mph93%30.24 "HgN/A
9:50 pm41 °FPassing clouds.8 mph93%30.24 "HgN/A
9:20 pm41 °FPartly cloudy.1 mph93%30.24 "HgN/A
8:50 pm39 °FPartly cloudy.No wind93%30.24 "HgN/A
8:20 pm41 °FPassing clouds.2 mph93%30.24 "HgN/A
7:50 pm43 °FPassing clouds.5 mph93%30.24 "HgN/A
7:20 pm43 °FPartly cloudy.9 mph93%30.24 "HgN/A
Weather by CustomWeather, © 2016

See weather overviewHow to use our weather pages